Home   Weather   Sharm el-Sheikh   Past weeks
Flag for Egypt

Past Weather in Sharm el-Sheikh, Egypt — Yesterday and Last 2 Weeks

Now
99 °F

Sunny.


Feels Like: 108 °F
Forecast: 96 / 82 °F
Wind: 12 mph from North

Location: Sharm El Sheikhintl

Current Time: Jul 21, 2019 at 5:51:56 pm

Latest Report: Jul 21, 2019 at 4:00 pm


Visibility: 10 mi

Pressure: 29.65 "Hg

Humidity: 42%

Dew Point: 72 °F

Location of Sharm el-SheikhLocation

Past Weather in Sharm el-Sheikh — Graph

°F

Sharm el-Sheikh Temperature Yesterday

Maximum temperature yesterday: 100 °F (at 4:00 pm)
Minimum temperature yesterday: 84 °F (at 5:00 am)
Average temperature yesterday: 92 °F

High & Low Weather Summary for the Past Weeks

 TemperatureHumidityPressure
High106 °F (Jul 11, 2:00 pm)100% (Jul 19, 12:00 pm)29.80 "Hg (Jul 19, 12:00 pm)
Low50 °F (Jul 19, 12:00 pm)29% (Jul 6, 5:00 pm)29.56 "Hg (Jul 11, 12:00 am)
Average93 °F50%29.70 "Hg
* Reported Jul 6 4:00 pm — Jul 21 4:00 pm, Sharm el-Sheikh. Weather by CustomWeather, © 2019

Note: Actual official high and low records may vary slightly from our data, if they occured in-between our weather recording intervals... More about our weather records

Advertising

Sharm el-Sheikh Weather History for the Previous 24 Hours

Scroll right to see more
 ConditionsComfort  
Time TempWeatherWind HumidityBarometerVisibility
4:00 pm
Sun, Jul 21
99 °FSunny.12 mph42%29.65 "Hg10 mi
3:00 pm95 °FSunny.14 mph47%29.68 "Hg10 mi
1:00 pm93 °FSunny.16 mph49%29.71 "Hg10 mi
12:00 pm91 °FSunny.16 mph56%29.74 "Hg10 mi
11:00 am90 °FSunny.15 mph59%29.74 "Hg10 mi
10:00 am90 °FSunny.16 mph55%29.74 "Hg10 mi
8:00 am86 °FSunny.18 mph66%29.77 "Hg10 mi
7:00 am84 °FSunny.20 mph70%29.77 "Hg10 mi
6:00 am82 °FSunny.14 mph74%29.74 "Hg10 mi
5:00 am82 °FSunny.15 mph79%29.74 "Hg10 mi
4:00 am82 °FClear.15 mph79%29.74 "Hg10 mi
3:00 am84 °FClear.15 mph70%29.74 "Hg10 mi
2:00 am86 °FClear.16 mph70%29.74 "Hg10 mi
1:00 am88 °FClear.15 mph62%29.74 "Hg10 mi
12:00 am88 °FClear.7 mph62%29.74 "Hg10 mi
11:00 pm
Sat, Jul 20
90 °FClear.7 mph55%29.74 "Hg10 mi
10:00 pm91 °FClear.10 mph52%29.74 "Hg10 mi
9:00 pm95 °FClear.13 mph44%29.74 "Hg10 mi
8:00 pm97 °FClear.14 mph37%29.71 "Hg10 mi
7:00 pm97 °FClear.13 mph37%29.71 "Hg10 mi
6:00 pm99 °FSunny.13 mph39%29.71 "Hg10 mi
5:00 pm100 °FSunny.13 mph40%29.71 "Hg10 mi
Weather by CustomWeather, © 2019

See weather overview